Flag for Netherlands Weather past 2 weeks in Eindhoven, Netherlands

Now
57 °F

Fog.


Feels Like: 55 °F
Forecast: 55 / 74 °F
Wind: 8 mph from Northeast

Location: Eindhoven Airport

Current Time: Sep 3, 2014 at 5:33:05 AM

Latest Report: Sep 3, 2014 at 4:55 AM


Visibility: 2 mi

Pressure: 30.21 "Hg

Humidity: 100%

Dew point: 57 °F

Location of EindhovenLocation

Historic Weather in Eindhoven — Graph

°F

Eindhoven temperature yesterday

Maximum temperature yesterday: 72 °F (at 2:25 PM)
Minimum temperature yesterday: 55 °F (at 12:25 AM)
Average temperature yesterday: 64 °F

Past Weeks' High & Low Weather Summary

 TemperatureHumidityPressure
High72 °F (Aug 28, 3:55 PM)100% (Aug 19, 4:25 AM)30.21 "Hg (Aug 19, 4:25 AM)
Low45 °F (Aug 20, 1:55 AM)46% (Aug 21, 2:55 PM)29.62 "Hg (Aug 26, 2:55 AM)
Average58 °F85%29.96 "Hg
* Reported Aug 19 4:25 AM — Sep 3 4:25 AM, Eindhoven, Weather by CustomWeather, © 2014

Note: Actual official high and low records may vary slightly from our data, if they occured in-between our weather recording intervals... More about our weather records

Advertising

Eindhoven weather history for previous 24 hours

 ConditionsComfort  
Time TempWeatherWind HumidityBarometerVisibility
4:25 AM
Sep 3
59 °FFog.6 mph94%30.21 "Hg2 mi
3:55 AM55 °FFog.6 mph100%30.21 "Hg1 mi
3:25 AM57 °FFog.5 mph94%30.21 "Hg1 mi
2:55 AM57 °FFog.3 mph100%30.21 "Hg2 mi
2:25 AM57 °FFog.3 mph100%30.21 "Hg2 mi
1:55 AM61 °FFog.5 mph94%30.21 "Hg2 mi
1:25 AM61 °FFog.6 mph94%30.21 "Hg3 mi
12:55 AM59 °FFog.5 mph100%30.21 "Hg3 mi
12:25 AM59 °FFog.6 mph94%30.21 "Hg4 mi
11:59 PM
Sep 2
59 °FFog.6 mph100%30.21 "Hg4 mi
11:25 PM61 °FFog.5 mph94%30.21 "Hg6 mi
10:55 PM61 °FOvercast.5 mph94%30.21 "HgN/A
10:25 PM61 °FOvercast.5 mph94%30.21 "HgN/A
9:55 PM63 °FPassing clouds.5 mph88%30.21 "HgN/A
9:25 PM64 °FOvercast.7 mph83%30.21 "HgN/A
8:55 PM64 °FOvercast.8 mph83%30.21 "HgN/A
8:25 PM66 °FOvercast.8 mph78%30.21 "HgN/A
7:55 PM66 °FOvercast.7 mph83%30.18 "HgN/A
7:25 PM66 °FOvercast.8 mph78%30.18 "HgN/A
6:55 PM68 °FMostly cloudy.9 mph73%30.18 "HgN/A
6:25 PM68 °FOvercast.8 mph73%30.18 "HgN/A
5:55 PM70 °FOvercast.9 mph64%30.18 "HgN/A
5:25 PM70 °FPartly sunny.9 mph60%30.18 "HgN/A
4:55 PM70 °FOvercast.8 mph60%30.18 "HgN/A
4:25 PM72 °FScattered clouds.8 mph53%30.18 "HgN/A
3:55 PM72 °FPartly sunny.9 mph57%30.18 "HgN/A
3:25 PM72 °FPassing clouds.7 mph57%30.18 "HgN/A
2:55 PM70 °FPassing clouds.9 mph60%30.18 "HgN/A
2:25 PM72 °FMild.7 mph57%30.18 "HgN/A
1:55 PM70 °FBroken clouds.9 mph57%30.18 "HgN/A
1:25 PM70 °FPassing clouds.7 mph57%30.18 "HgN/A
12:55 PM70 °FMild.6 mph57%30.18 "HgN/A
12:25 PM70 °FMild.6 mph60%30.18 "HgN/A
11:55 AM70 °FMild.5 mph60%30.18 "HgN/A
11:25 AM68 °FMild.6 mph60%30.18 "HgN/A
10:55 AM68 °FMild.5 mph56%30.18 "HgN/A
10:25 AM66 °FPassing clouds.3 mph64%30.18 "HgN/A
9:55 AM66 °FPartly sunny.6 mph64%30.18 "HgN/A
9:25 AM64 °FBroken clouds.3 mph73%30.18 "HgN/A
8:55 AM61 °FMostly cloudy.3 mph83%30.18 "HgN/A
8:25 AM61 °FMostly cloudy.2 mph83%30.15 "HgN/A
7:55 AM59 °FMostly cloudy.3 mph94%30.15 "HgN/A
7:25 AM57 °FOvercast.No wind100%30.15 "HgN/A
6:55 AM57 °FOvercast.1 mph100%30.15 "HgN/A
6:25 AM59 °FMostly cloudy.1 mph94%30.15 "HgN/A
5:55 AM59 °FOvercast.No wind88%30.15 "HgN/A
5:25 AM59 °FOvercast.2 mph88%30.15 "HgN/A
Weather by CustomWeather, © 2014

See weather overviewHow to use our weather pages